Weather History for KLCK - October, 2011

Change the Weather History Date:

Tuesday, October 11, 2011

  Actual Average Record
Temperature  
Mean Temperature 66 °F -  
Max Temperature 78 °F 66 °F 87 °F (2010)
Min Temperature 53 °F 45 °F 32 °F (2012)
Growing Degree Days 16 (Base 50)    
Moisture  
Dew Point 45 °F    
Average Humidity 56    
Maximum Humidity 82    
Minimum Humidity 23    
Precipitation  
Precipitation 0.00 in - - ()
Sea Level Pressure  
Sea Level Pressure 30.08 in    
Wind  
Wind Speed 6 mph (ENE)    
Max Wind Speed 16 mph    
Max Gust Speed 22 mph    
Visibility 10 miles    
Events      
Averages and records for this station are not official NWS values.
T = Trace of Precipitation, MM = Missing Value Source: NWS Daily Summary

Daily Weather History Graph

Daily Weather History Graph

Search for Another Location

Airport or City:

Trip Planner

Search our weather history database for the weather conditions in past years. The results will help you decide how hot, cold, wet, or windy it might be!

Date:

Astronomy

Oct. 11, 2011 Rise Set
Actual Time 7:37 AM EDT 6:58 PM EDT
Civil Twilight 7:10 AM EDT 7:25 PM EDT
Nautical Twilight 6:39 AM EDT 7:57 PM EDT
Astronomical Twilight 6:07 AM EDT 8:28 PM EDT
Moon 6:30 PM EDT (10/11) 7:14 AM EDT (10/11)
Length of Visible Light 12h 15m
Length of Day
11h 21m
Full, 100% of the Moon is Illuminated
Oct 11
Full
Oct 11
Full
Oct 19
Last Quarter
Oct 26
New
Nov 2
First Quarter

Hourly Weather History & Observations

Time (EDT) Temp. Dew Point Humidity Pressure Visibility Wind Dir Wind Speed Gust Speed Precip Events Conditions
12:15 AM 59.9 °F 46.6 °F 61% 30.13 in 10.0 mi East 8.1 mph - N/A   Clear
12:35 AM 59.0 °F 46.9 °F 64% 30.12 in 10.0 mi East 6.9 mph - N/A   Clear
12:55 AM 59.7 °F 46.9 °F 63% 30.11 in 10.0 mi East 3.5 mph - N/A   Clear
1:15 AM 59.7 °F 46.6 °F 62% 30.11 in 10.0 mi Calm Calm - N/A   Clear
1:35 AM 59.2 °F 46.6 °F 63% 30.11 in 10.0 mi Calm Calm - N/A   Clear
1:55 AM 58.3 °F 46.6 °F 65% 30.11 in 10.0 mi North 3.5 mph - N/A   Clear
2:15 AM 58.3 °F 46.6 °F 65% 30.11 in 10.0 mi NNE 5.8 mph - N/A   Clear
2:35 AM 56.3 °F 46.6 °F 70% 30.11 in 10.0 mi NNE 4.6 mph - N/A   Clear
2:55 AM 55.8 °F 47.3 °F 73% 30.10 in 10.0 mi NNE 8.1 mph - N/A   Clear
3:15 AM 55.6 °F 47.3 °F 74% 30.10 in 10.0 mi NE 8.1 mph - N/A   Clear
3:35 AM 55.0 °F 47.3 °F 75% 30.09 in 10.0 mi NE 8.1 mph - N/A   Clear
3:55 AM 54.3 °F 47.3 °F 77% 30.09 in 10.0 mi NE 6.9 mph - N/A   Clear
4:15 AM 54.0 °F 47.3 °F 78% 30.09 in 10.0 mi NE 6.9 mph - N/A   Clear
4:35 AM 54.0 °F 47.3 °F 78% 30.08 in 10.0 mi NE 8.1 mph - N/A   Clear
4:55 AM 53.6 °F 47.3 °F 79% 30.08 in 10.0 mi NE 6.9 mph - N/A   Clear
5:15 AM 54.0 °F 48.0 °F 80% 30.08 in 10.0 mi NNE 5.8 mph - N/A   Clear
5:35 AM 55.4 °F 50.0 °F 82% 30.08 in 10.0 mi NNE 5.8 mph - N/A   Clear
5:55 AM 57.2 °F 50.0 °F 77% 30.08 in 10.0 mi NNE 6.9 mph - N/A   Clear
6:15 AM 56.1 °F 49.1 °F 77% 30.09 in 10.0 mi NNE 6.9 mph - N/A   Clear
6:35 AM 55.4 °F 48.2 °F 77% 30.09 in 10.0 mi NNE 5.8 mph - N/A   Clear
6:55 AM 55.8 °F 48.7 °F 77% 30.10 in 10.0 mi NNE 6.9 mph - N/A   Clear
7:15 AM 56.3 °F 48.9 °F 76% 30.10 in 10.0 mi NNE 5.8 mph - N/A   Clear
7:35 AM 56.3 °F 48.7 °F 76% 30.10 in 10.0 mi NNE 4.6 mph - N/A   Clear
7:55 AM 57.2 °F 48.2 °F 72% 30.10 in 10.0 mi NNE 3.5 mph - N/A   Clear
8:15 AM 56.1 °F 48.4 °F 75% 30.11 in 10.0 mi NNE 5.8 mph - N/A   Clear
8:35 AM 56.1 °F 48.9 °F 77% 30.11 in 10.0 mi NNE 4.6 mph - N/A   Clear
8:55 AM 56.8 °F 49.3 °F 76% 30.11 in 10.0 mi NNE 4.6 mph - N/A   Clear
9:15 AM 57.7 °F 49.6 °F 74% 30.11 in 10.0 mi NE 4.6 mph - N/A   Clear
9:35 AM 58.5 °F 50.5 °F 75% 30.11 in 10.0 mi NE 4.6 mph - N/A   Clear
9:55 AM 59.0 °F 51.8 °F 77% 30.11 in 10.0 mi NE 4.6 mph - N/A   Clear
10:15 AM 61.2 °F 51.1 °F 69% 30.11 in 10.0 mi ENE 3.5 mph - N/A   Clear
10:35 AM 62.8 °F 51.4 °F 66% 30.11 in 10.0 mi Calm Calm - N/A   Clear
10:55 AM 64.2 °F 50.7 °F 61% 30.11 in 10.0 mi Calm Calm - N/A   Clear
11:15 AM 66.6 °F 51.6 °F 59% 30.10 in 10.0 mi ESE 5.8 mph - N/A   Clear
11:35 AM 70.5 °F 48.6 °F 46% 30.10 in 10.0 mi SE 9.2 mph - N/A   Clear
11:55 AM 73.2 °F 43.5 °F 34% 30.09 in 10.0 mi ESE 9.2 mph - N/A   Clear
12:15 PM 73.4 °F 42.4 °F 33% 30.09 in 10.0 mi SSE 9.2 mph - N/A   Clear
12:35 PM 75.4 °F 41.9 °F 30% 30.08 in 10.0 mi SSE 10.4 mph 17.3 mph N/A   Clear
12:55 PM 76.5 °F 38.3 °F 25% 30.08 in 10.0 mi SSE 13.8 mph 17.3 mph N/A   Clear
1:15 PM 76.6 °F 39.2 °F 26% 30.08 in 10.0 mi SSE 16.1 mph 20.7 mph N/A   Clear
1:35 PM 76.6 °F 37.6 °F 24% 30.07 in 10.0 mi South 12.7 mph 18.4 mph N/A   Clear
1:55 PM 77.9 °F 36.9 °F 23% 30.06 in 10.0 mi South 15.0 mph 21.9 mph N/A   Clear
2:15 PM 75.9 °F 37.6 °F 25% 30.05 in 10.0 mi SSE 15.0 mph 19.6 mph N/A   Clear
2:35 PM 76.8 °F 37.2 °F 24% 30.05 in 10.0 mi SE 11.5 mph - N/A   Clear
2:55 PM 77.0 °F 37.4 °F 24% 30.04 in 10.0 mi South 9.2 mph - N/A   Clear
3:15 PM 77.0 °F 39.2 °F 26% 30.03 in 10.0 mi SE 9.2 mph - N/A   Clear
3:35 PM 78.1 °F 36.9 °F 23% 30.03 in 10.0 mi SE 10.4 mph - N/A   Clear
3:55 PM 78.8 °F 37.4 °F 23% 30.02 in 10.0 mi SE 6.9 mph - N/A   Clear
4:15 PM 77.5 °F 37.4 °F 24% 30.02 in 10.0 mi ESE 6.9 mph 17.3 mph N/A   Clear
4:35 PM 77.5 °F 37.2 °F 23% 30.01 in 10.0 mi SE 8.1 mph - N/A   Clear
4:55 PM 76.8 °F 37.4 °F 24% 30.01 in 10.0 mi SE 6.9 mph - N/A   Scattered Clouds
5:15 PM 76.3 °F 37.8 °F 25% 30.01 in 10.0 mi SE 8.1 mph - N/A   Mostly Cloudy
5:35 PM 75.7 °F 39.2 °F 27% 30.00 in 10.0 mi East 9.2 mph - N/A   Mostly Cloudy
5:55 PM 74.1 °F 39.2 °F 28% 30.00 in 10.0 mi ESE 6.9 mph - N/A   Overcast
6:15 PM 72.7 °F 40.6 °F 31% 30.00 in 10.0 mi ESE 5.8 mph - N/A   Overcast
6:35 PM 71.6 °F 43.2 °F 36% 30.00 in 10.0 mi East 5.8 mph - N/A   Overcast
6:55 PM 70.2 °F 44.6 °F 40% 30.00 in 10.0 mi East 5.8 mph - N/A   Overcast
7:15 PM 69.1 °F 45.5 °F 43% 30.00 in 10.0 mi East 6.9 mph - N/A   Overcast
7:35 PM 68.2 °F 45.7 °F 44% 30.00 in 10.0 mi East 6.9 mph - N/A   Overcast
7:55 PM 67.5 °F 46.0 °F 46% 30.00 in 10.0 mi East 6.9 mph - N/A   Mostly Cloudy
8:15 PM 67.1 °F 46.6 °F 48% 30.00 in 10.0 mi East 6.9 mph - N/A   Scattered Clouds
8:35 PM 66.2 °F 48.2 °F 52% 29.99 in 10.0 mi East 6.9 mph - N/A   Scattered Clouds
8:55 PM 66.0 °F 47.8 °F 52% 29.99 in 10.0 mi East 5.8 mph - N/A   Scattered Clouds
9:15 PM 65.7 °F 48.2 °F 53% 30.00 in 10.0 mi ENE 8.1 mph - N/A   Scattered Clouds
9:35 PM 64.4 °F 48.7 °F 57% 30.00 in 10.0 mi ENE 5.8 mph - N/A   Clear
9:55 PM 63.9 °F 48.7 °F 58% 29.99 in 10.0 mi East 6.9 mph - N/A   Clear
10:15 PM 63.9 °F 48.9 °F 58% 29.99 in 10.0 mi East 6.9 mph - N/A   Clear
10:35 PM 63.7 °F 49.1 °F 59% 29.99 in 10.0 mi ENE 6.9 mph - N/A   Clear
10:55 PM 63.9 °F 49.1 °F 59% 29.99 in 10.0 mi ENE 6.9 mph - N/A   Clear
11:15 PM 63.9 °F 49.5 °F 59% 29.99 in 10.0 mi East 5.8 mph - N/A   Clear
11:35 PM 63.0 °F 49.8 °F 62% 29.99 in 10.0 mi ESE 4.6 mph - N/A   Clear
11:55 PM 62.6 °F 49.6 °F 63% 29.98 in 10.0 mi SE 4.6 mph - N/A   Clear